Back to catalog

ERMIS3

AliveScienceSSO
NORAD 68425·PAYLOAD·🇬🇷 Greece

Launched Mar 30, 2026 from Vandenberg Space Force Base

Loading…

Next Passes (next 24 hours)

TLE

FreshSource: Space-Track

Epoch: Sep 14, 2026, 07:14 UTC

1 68425U 26067K   26257.30164263  .00004779  00000-0  22734-3 0  9991
2 68425  97.4684 214.7949 0002922  57.7701 302.3817 15.19649257 25474

Track ERMIS3 in real time with AllMySat

Download on the App Store